Notices

What's New in latest Release from April 7th, 2021:

- Updated Glossary, including Speed of Maximum Gust, and Total Hourly Precipitation

- Updated national and regional climate services offices contacts and prices information

- Addition of station inventory lists for 1981-2010, 1971-2000, and 1961-1990 Normals.

If you haven't already, please take our survey and provide feedback about our website: https://eccc.sondage-survey.ca/f/LanguageSelection.aspx?s=442ca660-fcf1-47c0-95a9-59707d6fd709

Hourly Data Report for April 20, 2017

MIRAMICHI RCS
NEW BRUNSWICK

47°00'34.000" N
65°27'54.000" W
33.00 m
8100989
71744
ACQ

Download Data

Hourly Data (April 2017)
Hourly Data Report for April 20, 2017
TIME
LST
Temp Definition
°C
Dew Point Definition
°C
Rel Hum Definition
%
Precip. Amount Definition
mm

Wind Dir Definition
10's deg

Wind Spd Definition
km/h
Visibility Definition
km
Stn Press Definition
kPa
Hmdx Definition


Wind Chill Definition


Weather Definition


00:00 -0.8 -2.1 91 0.0 22 13   102.21   -5 LegendNANA
01:00 -1.1 -1.9 94 1.3 19 11   102.16   -5 LegendNANA
02:00 -1.3 -2.1 94 0.9 17 7   102.08   -4 LegendNANA
03:00 -1.3 -2.0 95 1.0 16 6   102.05   -4 LegendNANA
04:00 -1.0 -1.6 96 0.6 17 8   102.03   -4 LegendNANA
05:00 -0.9 -1.5 95 0.6 17 7   102.02   -3 LegendNANA
06:00 -0.8 -1.7 93 0.0 19 13   102.04   -5 LegendNANA
07:00 -0.6 -1.7 92 0.0 18 12   102.02   -5 LegendNANA
08:00 -0.3 -1.6 91 0.2 20 13   102.09   -4 LegendNANA
09:00 0.3 -1.0 91 0.0 19 8   102.07     LegendNANA
10:00 1.0 -0.5 90 0.2 18 6   102.07     LegendNANA
11:00 1.6 -0.4 86 0.0 19 9   102.03     LegendNANA
12:00 2.4 -0.4 82 0.0 23 10   102.00     LegendNANA
13:00 2.7 0.2 84 0.0 23 10   101.99     LegendNANA
14:00 3.4 0.2 80 0.0 23 10   101.98     LegendNANA
15:00 3.7 1.1 83 0.0 23 5   101.97     LegendNANA
16:00 3.9 0.9 81 0.0 27 5   101.99     LegendNANA
17:00 3.9 0.9 81 0.0 0 1   102.00     LegendNANA
18:00 3.8 1.3 84 0.0 5 5   102.04     LegendNANA
19:00 2.8 1.0 88 0.0 4 6   102.08     LegendNANA
20:00 2.2 1.1 92 0.0 2 3   102.13     LegendNANA
21:00 1.5 0.8 95 0.0 4 4   102.12     LegendNANA
22:00 0.6 0.3 98 0.0 5 7   102.11     LegendNANA
23:00 0.7 0.4 98 0.0 5 7   102.10     LegendNANA

Notes on Data Quality.

Legend

  • E = Estimated
  • M = Missing
  • NA = Not Available*
  • [empty] = Indicates an unobserved value
Date modified: